Location: Br�nsee
(48.7706°N, 10.7150°E)
Time: 02:21:04
(UTC+00:00)

Daily predictions for brighter satellites

Satellite Brightness Start Highest point End
(mag) Time Altitude Azimuth Time Altitude Azimuth Time Altitude Azimuth
CENTAUR R/B 4.1 02:14:21 41° ESE 02:14:21 41° ESE 02:19:58 10° ESE
Lacrosse 5 4.2 02:52:48 19° ESE 02:52:48 19° ESE 02:55:19 10° ENE
Cosmos 2263 Rocket 3.5 03:01:26 36° ENE 03:01:26 36° ENE 03:05:17 10° NE
SJ 16-02 3.8 03:08:47 20° ENE 03:08:47 20° ENE 03:11:12 10° NE
CZ-4C R/B 4.1 03:25:49 14° SSE 03:28:51 24° ESE 03:33:17 10° ENE
BREEZE-M DEB (TANK) 4.3 03:30:33 78° W 03:31:06 87° SSW 03:35:22 10° ESE
ATLAS 3B R/B 3.2 03:30:35 47° N 03:32:09 56° NE 03:39:10 10° ESE
Cosmos 1943 4.2 03:36:00 36° SSE 03:36:00 36° SSE 03:39:16 10° SSE
Lacrosse 4 Rocket 3.5 03:38:11 23° SE 03:38:11 23° SE 03:39:52 10° SE
ALOS 2.6 03:49:01 10° NNE 03:53:16 64° ENE 03:53:16 64° ENE
Cosmos 923 Rocket 4.0 03:53:37 77° NE 03:53:49 78° ENE 03:59:08 10° SSE
Cosmos 2227 Rocket 4.2 03:57:13 15° N 03:57:13 15° N 03:58:36 10° N
Cosmos 2344 4.4 03:53:01 30° NW 03:58:32 76° NE 04:11:15 10° SE
NOSS 3-2 (C) 4.3 04:00:08 47° WSW 04:00:08 47° WSW 04:08:06 10° S
Cosmos 2227 4.2 04:01:36 65° NNW 04:01:36 65° NNW 04:06:43 10° NNE
USA 305 4.1 04:02:46 36° NNE 04:02:46 36° NNE 04:05:56 10° ENE
CENTAUR R/B 3.4 04:01:35 47° WSW 04:02:03 47° WSW 04:10:22 10° S
NOSS 3-4 (A) 3.3 04:00:50 53° SSW 04:02:22 84° SE 04:08:46 10° NE
NOSS 3-4 (C) 3.3 04:00:54 52° SSW 04:02:29 84° SE 04:08:53 10° NE
ARGOS Delta rocket 3.8 03:59:34 10° N 04:04:43 84° NW 04:04:43 84° NW
Meteor 1-31 Rocket 3.9 04:02:32 10° NNE 04:05:08 38° NE 04:05:08 38° NE
USA 306 3.9 04:10:52 38° NNE 04:10:52 38° NNE 04:14:25 10° ENE
Cosmos 158 Rocket 3.7 04:10:38 79° SW 04:10:38 79° SW 04:15:32 10° SSE
Cosmos 1515 Rocket 4.2 04:09:36 25° N 04:12:05 57° ENE 04:16:28 10° SSE
SL-4 R/B 2.6 04:15:03 47° NE 04:15:03 47° NE 04:17:58 10° ENE
Cosmos 1151 Rocket 4.1 04:17:01 32° S 04:17:01 32° S 04:19:25 10° S
Cosmos 1782 2.9 04:16:34 76° ENE 04:16:36 76° ENE 04:20:38 10° SSE
SKYMED 2 3.7 04:13:31 10° SSE 04:17:51 74° ENE 04:19:24 39° N
Cosmos 1844 Rocket 4.0 04:13:07 10° S 04:18:21 41° ESE 04:23:38 10° NE
Cosmos 1680 Rocket 3.4 04:20:02 44° NNW 04:21:48 82° WSW 04:27:07 10° SSE
ATLAS 2AS CENTAUR R/B 3.0 04:15:31 17° SW 04:22:04 89° SE 04:29:57 10° NE
ERS-2 4.5 04:18:39 10° S 04:19:17 14° S 04:19:17 14° S
SJ-12 4.3 04:18:41 10° NNE 04:22:44 63° E 04:26:45 10° S
FALCON 9 DEB 4.0 04:24:40 44° ESE 04:24:40 44° ESE 04:27:21 10° ENE
FALCON 9 DEB 4.3 04:26:37 35° NNE 04:26:37 35° NNE 04:29:17 10° ENE
Cosmos 2297 Rocket 4.3 04:30:30 12° NNW 04:30:30 12° NNW 04:31:41 10° N
ATLAS 5 CENTAUR R/B 3.2 04:31:19 26° N 04:31:19 26° N 04:32:46 10° NNE
RESURS DK-1 3.1 04:28:23 10° SSW 04:32:26 54° ESE 04:36:31 10° NE
ATLAS CENTAUR R/B 1.1 04:32:06 69° N 04:32:29 79° NE 04:36:24 10° SE
CRYOSAT 2 4.2 04:28:10 10° S 04:33:01 76° W 04:37:55 10° N
ADEOS 3.5 04:28:16 10° N 04:33:28 65° WNW 04:38:37 10° SSW
Lacrosse 5 1.8 04:32:03 38° SW 04:34:01 87° SE 04:39:08 10° NE
Cosmos 1328 Rocket 3.8 04:35:40 48° WSW 04:35:40 48° WSW 04:39:25 10° S
Meteor PRIRODA 4.2 04:31:59 10° NNE 04:35:41 59° E 04:39:21 10° S
Meteor 2-6 Rocket 4.3 04:31:24 10° N 04:36:49 70° ENE 04:42:14 10° SSE
Cosmos 1500 Rocket 4.4 04:32:47 10° S 04:36:57 51° E 04:41:10 10° NNE
ERBS 4.0 04:38:12 23° NNE 04:38:12 23° NNE 04:40:05 10° NE
H-2A R/B 4.1 04:35:49 10° NNE 04:39:33 41° E 04:43:14 10° S
Cosmos 1437 Rocket 4.4 04:37:17 10° N 04:40:46 32° ENE 04:44:11 10° SE
Cosmos 2112 Rocket 4.0 04:38:54 30° NW 04:41:33 67° WSW 04:46:50 10° S
Gbstr 26 Del rocket 3.0 04:43:34 45° SW 04:43:50 46° SSW 04:47:34 10° SE
Cosmos 2263 Rocket 2.7 04:43:11 36° WNW 04:43:56 37° NW 04:49:14 10° NNE
SJ 16-02 1.6 04:45:52 44° WNW 04:46:04 45° WNW 04:50:21 10° N
Nadezhda 3 Rocket 4.3 04:42:55 10° N 04:49:14 68° ENE 04:55:26 10° SSE
Cosmos 1898 Rocket 3.5 04:48:13 10° SSW 04:53:34 87° WNW 04:58:57 10° NNE
CZ-2C R/B 4.1 04:50:52 10° SE 04:55:49 36° ENE 05:00:41 10° N
FALCON 9 DEB 2.9 04:56:35 45° SW 04:57:27 79° SSE 05:00:41 10° ENE
FALCON 9 DEB 2.9 04:56:45 47° SW 04:57:34 83° SSE 05:00:48 10° ENE
FENGYUN 3A 4.1 04:53:15 10° N 04:58:13 38° WNW 05:03:09 10° SW
Envisat 4.0 04:53:48 10° NNE 04:58:45 49° E 05:03:39 10° S
Cosmos 1743 Rocket 3.5 04:56:24 10° S 05:00:52 88° WNW 05:05:23 10° N
H-2A R/B 3.8 04:58:34 10° NNE 05:02:12 38° E 05:05:46 10° SSE
Cosmos 1408 Rocket 3.8 04:58:38 10° SSW 05:02:56 47° WNW 05:07:15 10° N
Cosmos 2181 Rocket 4.4 04:58:03 10° NNW 05:03:42 37° W 05:09:15 10° SSW
Cosmos 2082 Rocket 4.1 04:59:12 10° N 05:03:47 24° NE 05:08:22 10° E
NOSS 7 (H) 4.4 05:02:08 10° SSW 05:05:27 70° SE 05:08:22 10° NE
COSMO-SKYMED 1 3.1 05:01:59 10° SSW 05:06:00 37° W 05:07:59 24° NW
USA 307 3.5 05:05:08 27° NW 05:07:06 45° N 05:11:16 10° E
Cosmos 1937 Rocket 3.4 05:05:28 10° SSW 05:10:38 85° WNW 05:15:53 10° NNE
USA 308 3.5 05:11:14 24° NW 05:13:29 46° NNE 05:17:38 10° E
Lacrosse 4 Rocket 3.4 05:14:33 13° WSW 05:14:33 13° WSW 05:15:55 10° SW
Cosmos 1833 Rocket 3.8 05:09:07 10° NNW 05:14:26 40° NE 05:19:42 10° ESE
Meteor 2-3 Rocket 4.3 05:10:02 10° SW 05:15:14 34° WNW 05:20:31 10° N
MOS 1 Rocket 3.4 05:11:30 10° S 05:16:19 73° WSW 05:21:29 10° NNW
CZ-4C R/B 2.1 05:11:35 10° SW 05:16:38 67° NW 05:22:48 10° NE
Cosmos 2154 Rocket 4.0 05:10:30 10° S 05:16:44 89° W 05:23:04 10° N
CZ-4B R/B 3.3 05:12:39 10° N 05:17:00 48° WNW 05:21:14 10° SW
Meteor 1-27 Rocket 4.0 05:12:34 10° N 05:18:21 78° ENE 05:24:13 10° SSE
Cosmos 1689 Rocket 3.6 05:16:40 10° SSW 05:18:12 20° WSW 05:18:12 20° WSW
Cosmos 1805 Rocket 3.8 05:15:38 10° S 05:20:03 75° E 05:24:32 10° NNE
FALCON 9 DEB 2.8 05:18:33 24° WSW 05:20:18 75° NNW 05:23:32 10° ENE
Meteor 1-10 Rocket 4.2 05:14:50 10° NNW 05:20:21 67° W 05:25:54 10° S
ATLAS 3B R/B 3.2 05:17:51 17° NW 05:22:47 43° WSW 05:29:29 10° S
Aureole 2 Rocket 1.5 05:21:57 10° SSW 05:24:29 88° ESE 05:27:03 10° NNE
COSMOS 2406 3.8 05:18:56 10° NNW 05:24:37 56° ENE 05:30:16 10° SE
Cosmos 1862 3.4 05:23:41 10° SSW 05:27:39 53° WNW 05:31:39 10° N
YAOGAN 6 2.4 05:24:18 10° NNE 05:27:50 89° E 05:31:19 10° SSW
Genesis I 3.2 05:25:33 10° SW 05:29:18 54° NW 05:33:06 10° NNE
ALOS 3.6 05:27:29 10° NNW 05:30:37 18° WNW 05:31:45 17° WNW
Cosmos 2341 Rocket 4.4 05:26:36 10° S 05:32:44 69° E 05:38:56 10° NNE
Cosmos 2278 Rocket 4.2 05:28:53 10° SSE 05:33:49 33° ESE 05:38:50 10° NE
Cosmos 2327 Rocket 4.4 05:30:11 10° SSW 05:36:13 63° WNW 05:42:17 10° N
Cosmos 990 Rocket 4.5 05:31:37 10° SW 05:36:29 37° WNW 05:41:23 10° N
PSLV R/B 3.7 05:32:47 10° N 05:36:38 59° WNW 05:40:21 10° SSW
Cosmos 2074 Rocket 4.3 05:31:53 10° SW 05:37:45 43° WNW 05:43:39 10° N
Meteor 1-31 Rocket 4.4 05:38:05 10° NNW 05:40:20 15° WNW 05:40:29 15° WNW
USA 305 3.3 05:38:55 15° WNW 05:42:23 56° NNE 05:46:38 10° E
BREEZE M DEB (TANK) 3.3 05:36:32 10° SW 05:42:51 46° SSE 05:45:23 10° E
Cosmos 405 Rocket 3.1 05:40:05 10° SW 05:43:33 38° WNW 05:47:06 10° N
SL-24 DEB 4.3 05:38:52 10° S 05:43:35 61° W 05:48:21 10° N
NOAA 12 4.5 05:40:23 10° NNE 05:45:40 71° ESE 05:50:54 10° S
Cosmos 1812 3.7 05:43:23 10° NNW 05:46:41 27° W 05:49:58 10° SSW
Cosmos 1295 Rocket 4.4 05:43:08 10° SSW 05:49:10 64° WNW 05:55:14 10° N
Cosmos 2228 Rocket 3.8 05:45:17 10° NNW 05:49:12 31° W 05:53:04 10° SSW
USA 306 3.2 05:47:01 13° WNW 05:50:51 60° NNE 05:55:06 10° E
Cosmos 1633 Rocket 3.5 05:49:14 10° S 05:53:37 67° E 05:58:01 10° NNE
NOSS 3-4 (A) 4.3 05:48:34 10° W 05:54:00 32° NNW 05:59:52 10° NE
NOSS 3-4 (C) 4.3 05:48:41 10° W 05:54:07 33° NNW 06:00:00 10° NE
SL-4 R/B 1.9 05:50:37 12° WNW 05:54:08 64° NNE 05:57:43 10° E
USA 234 3.7 05:50:40 10° ENE 05:57:12 70° SE 06:03:43 10° SW
Cosmos 1356 3.3 05:55:44 10° SSW 05:59:08 76° WNW 06:02:35 10° N
FALCON 9 DEB 3.3 05:57:08 10° W 06:00:14 46° NNW 06:03:22 10° ENE
Cosmos 1844 Rocket 3.1 05:56:58 10° WSW 06:02:16 40° NW 06:07:37 10° NNE
FALCON 9 DEB 3.3 05:59:52 10° WNW 06:03:19 66° NNE 06:06:47 10° ESE
Cosmos 1707 Rocket 3.7 06:02:07 10° NNW 06:06:20 51° W 06:10:32 10° S
MOS 1-B 4.4 06:02:03 10° N 06:07:47 60° WNW 06:13:28 10° SW
COSMOS 2455 2.9 06:04:20 10° SW 06:10:22 71° NW 06:16:26 10° NNE
RESURS DK-1 3.6 06:07:31 10° W 06:10:47 22° NW 06:14:03 10° N
ATLAS CENTAUR R/B 3.3 06:09:11 10° W 06:10:52 13° WSW 06:12:33 10° SW
NOAA 6 4.3 06:06:01 10° N 06:10:55 47° WNW 06:15:48 10° SW
BREEZE-M (TANK) 4.0 06:06:08 10° SW 06:11:29 34° SSE 06:13:48 10° E
H-2A R/B 4.1 06:10:34 10° NNW 06:13:27 20° WNW 06:16:20 10° WSW
ATLAS 2AS CENTAUR R/B 3.6 06:06:41 10° W 06:13:59 38° NNW 06:21:04 10° NE
ERBS 4.0 06:11:43 10° NW 06:14:13 19° N 06:16:44 10° NE
Cosmos 1844 4.2 06:11:02 10° WSW 06:16:12 38° NW 06:21:25 10° NNE
Meteor 1-25 Rocket 4.4 06:12:08 10° S 06:17:42 84° E 06:23:18 10° NNE
